Home > Weather > Medellin > Past weeks

Flag for Colombia Weather for the Past 2 Weeks in Medellin, Colombia

Now
73 °F

Scattered clouds.


Feels Like: 77 °F
Forecast: 67 / 84 °F
Wind: 12 mph from Southeast

Location: Rionegro / J. M. Cordova

Current Time: Feb 14, 2016 at 3:02:18 PM

Latest Report: Feb 14, 2016 at 2:00 PM


Visibility: N/A

Pressure: 30.15 "Hg (25.42 "Hg at 1479m altitude)

Humidity: 53%

Dew point: 55 °F

Location of MedellinLocation

Historic Weather in Medellin — Graph

°F

Medellin Temperature Yesterday

Maximum temperature yesterday: 72 °F (at 1:00 PM)
Minimum temperature yesterday: 61 °F (at 1:00 AM)
Average temperature yesterday: 65 °F

High & Low Weather Summary for the Past Weeks

 TemperatureHumidityPressure
High75 °F (Jan 31, 2:00 PM)100% (Jan 30, 11:00 PM)30.38 "Hg (Jan 30, 11:00 PM)
Low52 °F (Feb 4, 7:00 AM)38% (Feb 6, 2:00 PM)30.15 "Hg (Feb 14, 2:00 PM)
Average64 °F79%30.27 "Hg
* Reported Jan 30 2:00 PM — Feb 14 2:00 PM, Medellin, Weather by CustomWeather, © 2016

Note: Actual official high and low records may vary slightly from our data, if they occured in-between our weather recording intervals... More about our weather records

Advertising

Medellin Weather History for the Previous 24 Hours

 ConditionsComfort  
Time TempWeatherWind HumidityBarometerVisibility
2:00 PM
Sun, Feb 14
73 °FScattered clouds.12 mph53%30.15 "HgN/A
1:00 PM73 °FScattered clouds.12 mph50%30.19 "HgN/A
12:00 PM70 °FScattered clouds.12 mph64%30.22 "HgN/A
11:00 AM68 °FPartly sunny.9 mph69%30.25 "HgN/A
10:00 AM66 °FScattered clouds.6 mph78%30.27 "HgN/A
9:00 AM63 °FBroken clouds.6 mph88%30.25 "Hg3 mi
8:00 AM63 °FFog.5 mph88%30.23 "Hg2 mi
7:00 AM61 °FFog.3 mph94%30.22 "Hg2 mi
6:00 AM61 °FRain. Passing clouds.No wind94%30.20 "Hg6 mi
5:00 AM61 °FPassing clouds.No wind94%30.20 "Hg5 mi
4:00 AM61 °FPassing clouds.No wind94%30.20 "Hg5 mi
3:00 AM61 °FPassing clouds.No wind94%30.20 "Hg6 mi
2:00 AM61 °FPartly cloudy.No wind94%30.23 "Hg6 mi
1:00 AM61 °FPassing clouds.No wind100%30.25 "Hg6 mi
12:00 AM63 °FPassing clouds.No wind88%30.26 "HgN/A
11:00 PM
Sat, Feb 13
63 °FPassing clouds.No wind88%30.28 "HgN/A
10:00 PM63 °FPartly cloudy.No wind94%30.27 "HgN/A
9:00 PM63 °FPartly cloudy.No wind88%30.26 "HgN/A
8:00 PM64 °FPassing clouds.No wind88%30.24 "HgN/A
7:00 PM66 °FPassing clouds.5 mph78%30.22 "HgN/A
6:00 PM66 °FScattered clouds.7 mph78%30.20 "HgN/A
5:00 PM70 °FScattered clouds.9 mph64%30.17 "HgN/A
4:00 PM72 °FScattered clouds.12 mph61%30.17 "HgN/A
3:00 PM72 °FScattered clouds.8 mph53%30.17 "HgN/A
Weather by CustomWeather, © 2016

See weather overviewHow to use our weather pages